Plainview, TX

6:58 AM CDT on June 24, 2017 (GMT -0500)
Hale County

Weather History for KPVW - November, 2011

Change the Weather History Date:

Thursday, November 3, 2011

  Actual Average Record
Temperature  
Mean Temperature 40 °F -  
Max Temperature 53 °F 61 °F 89 °F (2005)
Min Temperature 26 °F 37 °F 3 °F (1991)
Degree Days  
Heating Degree Days 26    
Moisture  
Dew Point 23 °F    
Average Humidity 58    
Maximum Humidity 93    
Minimum Humidity 28    
Precipitation  
Precipitation 0.00 in - - ()
Sea Level Pressure  
Sea Level Pressure 30.35 in    
Wind  
Wind Speed 10 mph (WNW)    
Max Wind Speed 17 mph    
Max Gust Speed 22 mph    
Visibility 10 miles    
Events      
Averages and records for this station are not official NWS values.
T = Trace of Precipitation, MM = Missing Value Source: NWS Daily Summary

Daily Weather History Graph

Daily Weather History Graph

Search for Another Location

Airport or City:

Trip Planner

Search our weather history database for the weather conditions in past years. The results will help you decide how hot, cold, wet, or windy it might be!

Date:

Astronomy

Nov. 03, 2011 Rise Set
Actual Time 8:08 AM CDT 6:52 PM CDT
Civil Twilight 7:42 AM CDT 7:18 PM CDT
Nautical Twilight 7:12 AM CDT 7:47 PM CDT
Astronomical Twilight 6:43 AM CDT 8:17 PM CDT
Moon 3:01 PM CDT (11/3) 1:40 AM CDT (11/3)
Length of Visible Light 11h 35m
Length of Day
10h 43m
First Quarter, 60% of the Moon is Illuminated
Nov 3
First Quarter
Nov 10
Full
Nov 18
Last Quarter
Nov 25
New
Dec 2
First Quarter

Hourly Weather History & Observations

Time (CDT) Temp. Windchill Dew Point Humidity Pressure Visibility Wind Dir Wind Speed Gust Speed Precip Events Conditions
12:15 AM 33.8 °F 23.9 °F 28.4 °F 81% 30.43 in 10.0 mi North 15.0 mph 21.9 mph N/A   Clear
12:35 AM 33.8 °F 24.8 °F 28.4 °F 81% 30.43 in 10.0 mi North 12.7 mph - N/A   Clear
12:55 AM 33.8 °F 23.2 °F 30.2 °F 87% 30.42 in 10.0 mi North 17.3 mph - N/A   Clear
1:15 AM 33.8 °F 24.8 °F 30.2 °F 87% 30.43 in 10.0 mi North 12.7 mph 20.7 mph N/A   Clear
1:35 AM 33.8 °F 24.8 °F 28.4 °F 81% 30.42 in 10.0 mi North 12.7 mph - N/A   Clear
1:55 AM 33.8 °F 24.8 °F 28.4 °F 81% 30.42 in 10.0 mi North 12.7 mph - N/A   Clear
2:15 AM 33.8 °F 26.4 °F 30.2 °F 87% 30.42 in 10.0 mi North 9.2 mph - N/A   Clear
2:35 AM 33.8 °F 24.3 °F 30.2 °F 87% 30.42 in 10.0 mi North 13.8 mph 18.4 mph N/A   Clear
2:55 AM 33.8 °F 24.8 °F 28.4 °F 81% 30.41 in 10.0 mi NNE 12.7 mph - N/A   Clear
3:15 AM 33.8 °F 25.3 °F 28.4 °F 81% 30.42 in 10.0 mi North 11.5 mph 19.6 mph N/A   Clear
3:35 AM 33.8 °F 25.3 °F 28.4 °F 81% 30.42 in 10.0 mi North 11.5 mph 16.1 mph N/A   Clear
4:35 AM 30.2 °F 22.6 °F 26.6 °F 86% 30.42 in 10.0 mi NNW 8.1 mph - N/A   Clear
4:55 AM 30.2 °F 21.3 °F 26.6 °F 86% 30.42 in 10.0 mi NW 10.4 mph - N/A   Clear
5:15 AM 30.2 °F 21.9 °F 26.6 °F 86% 30.43 in 10.0 mi NW 9.2 mph - N/A   Clear
5:35 AM 28.4 °F 20.4 °F 24.8 °F 86% 30.43 in 10.0 mi WNW 8.1 mph - N/A   Clear
5:55 AM 30.2 °F 23.4 °F 28.4 °F 93% 30.43 in 10.0 mi NW 6.9 mph - N/A   Clear
6:15 AM 28.4 °F 20.4 °F 24.8 °F 86% 30.43 in 10.0 mi NW 8.1 mph - N/A   Clear
6:35 AM 28.4 °F 21.2 °F 24.8 °F 86% 30.43 in 10.0 mi NW 6.9 mph - N/A   Clear
6:55 AM 28.4 °F 20.4 °F 24.8 °F 86% 30.43 in 10.0 mi NW 8.1 mph - N/A   Clear
7:15 AM 28.4 °F 20.4 °F 24.8 °F 86% 30.43 in 10.0 mi NW 8.1 mph - N/A   Clear
7:35 AM 26.6 °F 18.2 °F 23.0 °F 86% 30.42 in 10.0 mi NW 8.1 mph - N/A   Clear
7:55 AM 26.6 °F 19.1 °F 23.0 °F 86% 30.43 in 10.0 mi WNW 6.9 mph - N/A   Clear
8:15 AM 26.6 °F 19.1 °F 23.0 °F 86% 30.44 in 10.0 mi West 6.9 mph - N/A   Clear
8:35 AM 28.4 °F 19.7 °F 24.8 °F 86% 30.45 in 10.0 mi West 9.2 mph - N/A   Clear
8:55 AM 30.2 °F 22.6 °F 26.6 °F 86% 30.45 in 10.0 mi WNW 8.1 mph - N/A   Clear
9:35 AM 33.8 °F 26.4 °F 28.4 °F 81% 30.45 in 10.0 mi North 9.2 mph - N/A   Clear
9:55 AM 33.8 °F 27.0 °F 26.6 °F 75% 30.46 in 10.0 mi NW 8.1 mph - N/A   Clear
10:15 AM 35.6 °F 28.0 °F 26.6 °F 70% 30.44 in 10.0 mi North 10.4 mph - N/A   Clear
10:35 AM 37.4 °F 30.3 °F 23.0 °F 56% 30.44 in 10.0 mi NNW 10.4 mph - N/A   Clear
10:55 AM 39.2 °F 33.6 °F 21.2 °F 49% 30.44 in 10.0 mi NW 8.1 mph - N/A   Clear
11:15 AM 39.2 °F 33.0 °F 19.4 °F 45% 30.44 in 10.0 mi WNW 9.2 mph - N/A   Clear
11:35 AM 41.0 °F 35.2 °F 19.4 °F 42% 30.43 in 10.0 mi NW 9.2 mph - N/A   Clear
11:55 AM 41.0 °F 36.4 °F 17.6 °F 39% 30.43 in 10.0 mi NW 6.9 mph 16.1 mph N/A   Clear
12:35 PM 42.8 °F 40.1 °F 15.8 °F 34% 30.41 in 10.0 mi NNW 4.6 mph - N/A   Clear
1:15 PM 46.4 °F 45.2 °F 17.6 °F 32% 30.38 in 10.0 mi NW 3.5 mph - N/A   Clear
1:35 PM 50.0 °F - 19.4 °F 30% 30.37 in 10.0 mi WNW 4.6 mph - N/A   Clear
1:55 PM 50.0 °F - 19.4 °F 30% 30.35 in 10.0 mi WNW 3.5 mph - N/A   Clear
2:15 PM 50.0 °F - 19.4 °F 30% 30.34 in 10.0 mi NW 8.1 mph - N/A   Clear
2:35 PM 50.0 °F - 17.6 °F 28% 30.33 in 10.0 mi West 4.6 mph - N/A   Clear
2:55 PM 50.0 °F - 19.4 °F 30% 30.32 in 10.0 mi West 5.8 mph - N/A   Clear
3:15 PM 50.0 °F - 19.4 °F 30% 30.31 in 10.0 mi Calm Calm - N/A   Clear
3:35 PM 51.8 °F - 19.4 °F 28% 30.31 in 10.0 mi West 8.1 mph - N/A   Clear
3:55 PM 51.8 °F - 21.2 °F 30% 30.30 in 10.0 mi West 4.6 mph - N/A   Clear
4:35 PM 53.6 °F - 21.2 °F 28% 30.29 in 10.0 mi WSW 8.1 mph - N/A   Clear
4:55 PM 53.6 °F - 21.2 °F 28% 30.28 in 10.0 mi SW 4.6 mph - N/A   Clear
5:15 PM 53.6 °F - 21.2 °F 28% 30.27 in 10.0 mi WSW 4.6 mph - N/A   Clear
5:35 PM 53.6 °F - 21.2 °F 28% 30.27 in 10.0 mi SW 6.9 mph - N/A   Clear
5:55 PM 53.6 °F - 21.2 °F 28% 30.26 in 10.0 mi SW 8.1 mph - N/A   Clear
6:15 PM 51.8 °F - 21.2 °F 30% 30.26 in 10.0 mi SSW 5.8 mph - N/A   Clear
6:35 PM 50.0 °F - 21.2 °F 32% 30.25 in 10.0 mi SSW 5.8 mph - N/A   Clear
6:55 PM 50.0 °F - 21.2 °F 32% 30.25 in 10.0 mi SSW 4.6 mph - N/A   Clear
7:15 PM 46.4 °F 44.3 °F 21.2 °F 37% 30.25 in 10.0 mi South 4.6 mph - N/A   Clear
7:35 PM 42.8 °F 39.3 °F 21.2 °F 42% 30.25 in 10.0 mi South 5.8 mph - N/A   Clear
7:55 PM 42.8 °F 39.3 °F 21.2 °F 42% 30.25 in 10.0 mi South 5.8 mph - N/A   Clear
8:15 PM 41.0 °F 36.4 °F 21.2 °F 45% 30.24 in 10.0 mi South 6.9 mph - N/A   Clear
8:35 PM 41.0 °F 36.4 °F 23.0 °F 49% 30.24 in 10.0 mi South 6.9 mph - N/A   Clear
8:55 PM 41.0 °F 36.4 °F 21.2 °F 45% 30.23 in 10.0 mi South 6.9 mph - N/A   Clear
9:15 PM 41.0 °F 36.4 °F 21.2 °F 45% 30.23 in 10.0 mi South 6.9 mph - N/A   Clear
9:35 PM 39.2 °F 35.0 °F 21.2 °F 49% 30.23 in 10.0 mi South 5.8 mph - N/A   Clear
9:55 PM 39.2 °F 34.2 °F 23.0 °F 52% 30.23 in 10.0 mi South 6.9 mph - N/A   Clear
10:15 PM 37.4 °F 32.1 °F 23.0 °F 56% 30.23 in 10.0 mi South 6.9 mph - N/A   Clear
10:35 PM 39.2 °F 34.2 °F 23.0 °F 52% 30.24 in 10.0 mi South 6.9 mph - N/A   Clear
10:55 PM 39.2 °F 34.2 °F 23.0 °F 52% 30.23 in 10.0 mi South 6.9 mph - N/A   Clear
11:15 PM 37.4 °F 32.1 °F 23.0 °F 56% 30.23 in 10.0 mi South 6.9 mph - N/A   Clear
11:55 PM 37.4 °F 31.4 °F 23.0 °F 56% 30.22 in 10.0 mi South 8.1 mph - N/A   Clear